[[{"header":{"parameterUnit":"m.s-1","parameterCategory":1,"la1":30.2991,"la2":30.254,"lo1":-89.0895,"lo2":-89.0444,"dy":0.0017,"dx":0.0017,"nx":28,"ny":28,"refTime":"2023-10-12T03:00:00:Z","depth":0,"parameterNumber":2,"parameterNumberName":"U-component_of_WINDS"},"data":[0,0,0,0,0,0,0,0,0,0,0,0,0,0,0,0,0,0,0,0,0,0,0,0,0,0,0,0,0,0,0,0,0,0,0,0,0,0,0,0,0,0,0,0,0,0,0,0,0,0,0,0,0,0,0,0,0,0,-1.3252,-1.3253,0,-1.334,-1.3341,-1.3342,-1.3359,-1.3358,-1.3358,-1.3357,-1.3447,-1.345,-1.3453,0,0,0,0,0,0,0,0,0,0,0,0,0,-1.3097,-1.31,-1.3252,-1.3253,-1.3254,-1.334,-1.3341,-1.3343,-1.3359,-1.3358,-1.3357,-1.3357,-1.3446,-1.345,-1.3453,0,0,0,0,0,0,0,0,0,0,0,0,0,-1.3173,-1.3101,-1.3252,-1.3273,-1.3276,-1.334,-1.3342,-1.3343,-1.3359,-1.3358,-1.3357,-1.3356,-1.3445,-1.3449,-1.3454,-1.3504,0,0,-1.3468,-1.347,0,0,0,0,0,0,0,0,-1.3169,-1.3179,-1.3269,-1.3272,-1.3275,-1.3338,-1.332,-1.3397,-1.336,-1.3328,-1.3357,-1.3356,-1.3412,-1.3419,-1.3438,-1.3508,-1.3512,-1.3468,-1.3471,-1.3473,-1.3474,0,0,0,0,0,0,0,-1.3163,-1.3175,-1.3287,-1.327,-1.3274,-1.3278,-1.3287,-1.3335,-1.3374,-1.333,-1.3332,-1.3342,-1.3413,-1.3433,-1.344,-1.3513,-1.3468,-1.3472,-1.3475,-1.3477,-1.3628,-1.3629,0,0,0,0,0,0,-1.3154,-1.317,-1.3284,-1.329,-1.3218,-1.3281,-1.3292,-1.3318,-1.3374,-1.3381,-1.3343,-1.3342,-1.3426,-1.3435,-1.3443,-1.3505,-1.3473,-1.3477,-1.348,-1.3627,-1.3628,-1.363,0,0,0,0,0,0,-1.3151,-1.3164,-1.3281,-1.323,-1.3246,-1.3285,-1.3315,-1.3321,-1.3341,-1.3383,-1.3391,-1.3356,-1.3425,-1.3437,-1.3488,-1.3509,-1.3479,-1.3484,-1.3625,-1.3627,-1.3629,-1.3629,0,0,0,0,0,0,-1.3146,-1.3163,-1.3182,-1.3231,-1.3248,-1.3325,-1.3316,-1.3323,-1.3349,-1.3349,-1.3398,-1.3405,-1.3425,-1.3482,-1.3493,-1.3514,-1.3487,-1.3624,-1.3626,-1.3629,-1.3628,-1.3631,-1.3634,0,0,0,0,0,-1.3141,-1.3179,-1.3183,-1.3197,-1.3273,-1.3326,-1.3336,-1.3359,-1.3351,-1.337,-1.3397,-1.3403,-1.3504,-1.3487,-1.35,-1.3523,-1.3623,-1.3626,-1.3628,-1.3626,-1.363,-1.3634,0,0,0,0,0,0,-1.3132,-1.3186,-1.3191,-1.3246,-1.3281,-1.3328,-1.3354,-1.3362,-1.34,-1.3399,-1.3426,-1.3437,-1.3487,-1.351,-1.3489,-1.3574,-1.3563,-1.3568,-1.3557,-1.3561,-1.3564,-1.3558,-1.3491,0,0,0,0,0,-1.3136,-1.3175,-1.3219,-1.3264,-1.3281,-1.3314,-1.3338,-1.3353,-1.339,-1.3405,-1.3436,-1.3472,-1.3512,-1.3538,-1.3577,-1.3631,-1.3642,-1.3653,-1.3656,-1.3658,-1.3663,-1.3693,-1.3699,-1.3639,-1.3639,-1.3639,0,0,-1.3146,-1.318,-1.3203,-1.3263,-1.3292,-1.3331,-1.3327,-1.3368,-1.3397,-1.3411,-1.3462,-1.3486,-1.3528,-1.3581,-1.3606,-1.3602,-1.3682,-1.3662,-1.3663,-1.3667,-1.3697,-1.3703,-1.3708,-1.3641,-1.3641,-1.364,0,0,-1.3184,-1.3213,-1.3253,-1.3282,-1.3326,-1.3348,-1.3358,-1.3404,-1.342,-1.3471,-1.3483,-1.3518,-1.3586,-1.3615,-1.3639,-1.3687,-1.3694,-1.3699,-1.3715,-1.3744,-1.3749,-1.3753,-1.3771,-1.3777,-1.3703,-1.3703,-1.3703,0,-1.319,-1.325,-1.3273,-1.3314,-1.334,-1.3354,-1.3395,-1.3422,-1.3476,-1.3494,-1.3488,-1.3574,-1.3603,-1.3663,-1.3675,-1.3694,-1.3705,-1.3694,-1.3747,-1.3751,-1.3756,-1.3772,-1.3779,-1.3704,-1.3704,-1.3704,-1.3704,0,-1.3255,-1.3296,-1.3323,-1.3375,-1.3404,-1.3445,-1.3474,-1.3501,-1.3513,-1.3535,-1.3587,-1.3622,-1.3669,-1.3684,-1.3696,-1.3746,-1.3742,-1.3741,-1.3731,-1.3761,-1.3778,-1.3784,-1.3704,-1.3704,-1.3704,-1.3704,0,0,-1.3291,-1.3355,-1.3365,-1.3388,-1.3437,-1.3469,-1.351,-1.3556,-1.3578,-1.3615,-1.365,-1.3707,-1.3706,-1.3733,-1.3748,-1.3774,-1.381,-1.377,-1.3772,-1.3777,-1.3868,-1.3869,-1.3876,-1.3815,-1.3816,-1.3817,-1.3864,0,-1.3335,-1.3409,-1.3431,-1.3493,-1.3531,-1.3545,-1.358,-1.3614,-1.3636,-1.3671,-1.3695,-1.3735,-1.3731,-1.3748,-1.3774,-1.38,-1.3829,-1.3797,-1.3848,-1.3849,-1.3838,-1.3884,-1.3885,-1.3928,-1.3871,-1.3872,-1.3873,0,-1.3396,-1.3434,-1.35,-1.3544,-1.3561,-1.3593,-1.3636,-1.3669,-1.3708,-1.3722,-1.3752,-1.3765,-1.3808,-1.3795,-1.3854,-1.3832,-1.3854,-1.387,-1.3872,-1.3879,-1.3863,-1.3892,-1.3943,-1.3949,-1.3883,-1.3882,-1.3881,0,-1.3416,-1.3483,-1.3531,-1.3551,-1.3604,-1.3626,-1.3649,-1.3686,-1.3712,-1.375,-1.3767,-1.3809,-1.3832,-1.3864,-1.3888,-1.3876,-1.3945,-1.3934,-1.3958,-1.3958,-1.3973,-1.3972,-1.4028,-1.3986,-1.3986,-1.3986,-1.3986,0,-1.3463,-1.3503,-1.3541,-1.3571,-1.3616,-1.364,-1.3684,-1.3707,-1.3741,-1.3775,-1.3789,-1.3821,-1.385,-1.3886,-1.3905,-1.3951,-1.3962,-1.3974,-1.3979,-1.3973,-1.3972,-1.3989,-1.3986,-1.3988,-1.3987,-1.3987,-1.3987,0,-1.3493,-1.352,-1.3574,-1.3619,-1.3631,-1.3662,-1.3701,-1.373,-1.3752,-1.3795,-1.3807,-1.3842,-1.3884,-1.3911,-1.3965,-1.3978,-1.4029,-1.4033,-1.4017,-1.4019,-1.4042,-1.4039,-1.4111,-1.4122,-1.4072,-1.4073,-1.4073,0,-1.3522,-1.3553,-1.3601,-1.3625,-1.3648,-1.3687,-1.3713,-1.3738,-1.3765,-1.3811,-1.3835,-1.3878,-1.3915,-1.3982,-1.4012,-1.4054,-1.4058,-1.4081,-1.4065,-1.4058,-1.4059,-1.4057,-1.4061,-1.4084,-1.4084,-1.4084,-1.4085,0,-1.357,-1.3581,-1.3619,-1.3661,-1.3692,-1.3727,-1.3761,-1.378,-1.3811,-1.384,-1.3884,-1.3912,-1.3967,-1.4011,-1.4055,-1.4078,-1.4087,-1.4089,-1.4097,-1.4092,-1.4082,-1.4088,-1.4024,-1.4088,-1.4087,-1.4087,-1.4087,-1.4087,-1.36,-1.3629,-1.3667,-1.3708,-1.3737,-1.3768,-1.3798,-1.3824,-1.3861,-1.3908,-1.392,-1.3966,-1.4004,-1.4064,-1.4088,-1.4124,-1.4121,-1.4132,-1.4135,-1.4138,-1.4138,-1.4075,-1.4132,-1.4132,-1.4132,-1.4132,-1.4132,0,-1.365,-1.3675,-1.3713,-1.376,-1.3793,-1.3797,-1.3836,-1.3862,-1.3903,-1.3937,-1.3972,-1.4022,-1.4064,-1.4097,-1.414,-1.4163,-1.4168,-1.4173,-1.4172,-1.4177,-1.4138,-1.4128,-1.4168,-1.4168,-1.4168,-1.4168,-1.4168,-1.4168,-1.3679,-1.3727,-1.3743,-1.3805,-1.383,-1.3876,-1.3897,-1.3926,-1.3954,-1.4009,-1.4044,-1.4065,-1.4099,-1.4144,-1.4182,-1.4191,-1.4206,-1.4211,-1.422,-1.4184,-1.418,-1.4176,-1.4166,-1.4214,-1.4214,-1.4256,-1.4257,-1.4257]},{"header":{"parameterUnit":"m.s-1","parameterCategory":1,"la1":30.2991,"la2":30.254,"lo1":-89.0895,"lo2":-89.0444,"dy":0.0017,"dx":0.0017,"nx":28,"ny":28,"refTime":"2023-10-12T03:00:00:Z","depth":0,"parameterNumber":3,"parameterNumberName":"V-component_of_WINDS"},"data":[0,0,0,0,0,0,0,0,0,0,0,0,0,0,0,0,0,0,0,0,0,0,0,0,0,0,0,0,0,0,0,0,0,0,0,0,0,0,0,0,0,0,0,0,0,0,0,0,0,0,0,0,0,0,0,0,0,0,-4.2306,-4.2307,0,-4.2354,-4.2354,-4.2355,-4.2319,-4.2317,-4.2316,-4.2314,-4.2359,-4.2362,-4.2365,0,0,0,0,0,0,0,0,0,0,0,0,0,-4.2181,-4.2183,-4.2306,-4.2307,-4.2307,-4.2354,-4.2354,-4.2355,-4.2319,-4.2317,-4.2315,-4.2314,-4.2359,-4.2362,-4.2365,0,0,0,0,0,0,0,0,0,0,0,0,0,-4.2232,-4.2184,-4.2306,-4.2295,-4.2295,-4.2353,-4.2354,-4.2355,-4.232,-4.2317,-4.2315,-4.2313,-4.2358,-4.2361,-4.2365,-4.2436,0,0,-4.2377,-4.2379,0,0,0,0,0,0,0,0,-4.223,-4.2237,-4.2296,-4.2296,-4.2296,-4.2328,-4.2327,-4.2382,-4.232,-4.231,-4.2314,-4.2312,-4.2351,-4.2355,-4.2369,-4.2438,-4.244,-4.2378,-4.238,-4.2382,-4.2383,0,0,0,0,0,0,0,-4.2226,-4.2235,-4.2325,-4.2297,-4.2297,-4.2287,-4.2291,-4.2337,-4.2343,-4.2311,-4.2308,-4.2315,-4.235,-4.2365,-4.237,-4.2441,-4.2378,-4.2381,-4.2384,-4.2385,-4.2571,-4.2574,0,0,0,0,0,0,-4.2224,-4.2232,-4.2323,-4.2326,-4.2256,-4.2291,-4.2296,-4.232,-4.2342,-4.2343,-4.2316,-4.2313,-4.236,-4.2365,-4.2371,-4.2456,-4.2382,-4.2386,-4.2388,-4.2569,-4.2572,-4.2575,0,0,0,0,0,0,-4.2221,-4.2232,-4.2321,-4.2279,-4.2289,-4.2296,-4.2322,-4.2322,-4.2337,-4.2346,-4.2347,-4.2331,-4.2358,-4.2366,-4.2421,-4.2457,-4.2387,-4.2391,-4.2566,-4.257,-4.2573,-4.2627,0,0,0,0,0,0,-4.2218,-4.2232,-4.226,-4.2279,-4.2292,-4.2371,-4.2325,-4.2325,-4.2345,-4.234,-4.236,-4.2362,-4.2357,-4.2415,-4.2425,-4.2461,-4.2394,-4.2562,-4.2567,-4.2572,-4.2622,-4.2632,-4.2641,0,0,0,0,0,-4.2214,-4.2272,-4.2261,-4.2272,-4.2327,-4.2373,-4.238,-4.2375,-4.2348,-4.2375,-4.2381,-4.2361,-4.2452,-4.2421,-4.2431,-4.247,-4.256,-4.2566,-4.2572,-4.2618,-4.263,-4.264,0,0,0,0,0,0,-4.2255,-4.2274,-4.2263,-4.2329,-4.235,-4.2367,-4.2402,-4.2388,-4.2416,-4.241,-4.2401,-4.2406,-4.2464,-4.2472,-4.2438,-4.254,-4.2501,-4.251,-4.2533,-4.2545,-4.2554,-4.2551,-4.2397,0,0,0,0,0,-4.2272,-4.2309,-4.2324,-4.2381,-4.2392,-4.2396,-4.2416,-4.241,-4.243,-4.2439,-4.2448,-4.2468,-4.2501,-4.2523,-4.2554,-4.2623,-4.2626,-4.2654,-4.2664,-4.2671,-4.2679,-4.2716,-4.2729,-4.2594,-4.2593,-4.2593,0,0,-4.2307,-4.2322,-4.2346,-4.239,-4.2405,-4.2444,-4.2403,-4.2445,-4.2473,-4.2444,-4.2498,-4.2506,-4.2527,-4.259,-4.2617,-4.2598,-4.2717,-4.2679,-4.2685,-4.2688,-4.2723,-4.2736,-4.2747,-4.2597,-4.2597,-4.2596,0,0,-4.2391,-4.2406,-4.2456,-4.2473,-4.2497,-4.2499,-4.2511,-4.2531,-4.2535,-4.2589,-4.2568,-4.2601,-4.2658,-4.2674,-4.269,-4.278,-4.2763,-4.2791,-4.284,-4.2877,-4.2887,-4.2897,-4.2929,-4.2941,-4.2798,-4.2798,-4.2798,0,-4.2431,-4.2489,-4.2483,-4.2527,-4.2547,-4.2524,-4.2574,-4.259,-4.2623,-4.2636,-4.2615,-4.2686,-4.2699,-4.2765,-4.2787,-4.2801,-4.2814,-4.2788,-4.2886,-4.2896,-4.2904,-4.2936,-4.2948,-4.2801,-4.2801,-4.28,-4.28,0,-4.2538,-4.2578,-4.2616,-4.265,-4.2673,-4.272,-4.272,-4.2744,-4.2736,-4.274,-4.2795,-4.2809,-4.2843,-4.2858,-4.285,-4.2923,-4.2911,-4.2888,-4.2849,-4.2921,-4.295,-4.2962,-4.2806,-4.2805,-4.2804,-4.2803,0,0,-4.2649,-4.268,-4.2694,-4.2709,-4.2735,-4.2765,-4.281,-4.2845,-4.2866,-4.2889,-4.2927,-4.2976,-4.2955,-4.2973,-4.2966,-4.2998,-4.307,-4.2972,-4.2972,-4.299,-4.3152,-4.317,-4.3183,-4.3058,-4.306,-4.3062,-4.315,0,-4.2735,-4.2816,-4.2812,-4.2887,-4.2925,-4.2903,-4.2943,-4.2962,-4.2967,-4.2998,-4.3002,-4.3038,-4.3008,-4.3018,-4.3049,-4.3055,-4.3102,-4.3048,-4.3092,-4.3094,-4.3089,-4.3199,-4.3217,-4.33,-4.3162,-4.3163,-4.3165,0,-4.2846,-4.2875,-4.2955,-4.2975,-4.2991,-4.3026,-4.3058,-4.3088,-4.3109,-4.311,-4.3131,-4.3119,-4.3164,-4.3124,-4.3185,-4.3149,-4.3166,-4.3172,-4.3175,-4.3179,-4.3134,-4.3207,-4.3326,-4.3339,-4.3183,-4.3181,-4.318,0,-4.292,-4.2979,-4.3034,-4.3048,-4.3073,-4.3099,-4.311,-4.3129,-4.315,-4.3177,-4.319,-4.3221,-4.3238,-4.3262,-4.3259,-4.323,-4.3322,-4.3281,-4.3324,-4.3324,-4.3344,-4.3343,-4.3469,-4.3355,-4.3355,-4.3354,-4.3354,0,-4.3017,-4.3067,-4.3068,-4.3102,-4.3157,-4.3151,-4.3205,-4.3213,-4.3231,-4.3265,-4.3248,-4.328,-4.3274,-4.3306,-4.3303,-4.3355,-4.3362,-4.3364,-4.3363,-4.3366,-4.3366,-4.3378,-4.3373,-4.3358,-4.3357,-4.3356,-4.3356,0,-4.311,-4.3112,-4.3172,-4.3191,-4.3197,-4.3236,-4.3252,-4.3284,-4.3287,-4.3331,-4.3341,-4.3346,-4.3383,-4.3382,-4.3424,-4.3422,-4.3486,-4.3477,-4.3479,-4.3478,-4.3521,-4.3517,-4.3659,-4.3678,-4.3551,-4.3552,-4.3553,0,-4.3172,-4.321,-4.3233,-4.3256,-4.327,-4.3306,-4.3328,-4.3323,-4.3346,-4.3374,-4.3402,-4.3438,-4.3466,-4.3526,-4.3533,-4.3565,-4.3557,-4.3605,-4.3562,-4.3564,-4.3559,-4.3557,-4.3561,-4.3614,-4.3615,-4.3616,-4.3617,0,-4.3281,-4.3281,-4.3314,-4.3348,-4.3375,-4.3401,-4.3424,-4.3443,-4.3441,-4.3468,-4.3506,-4.3529,-4.3572,-4.3608,-4.3638,-4.3648,-4.3633,-4.3631,-4.3642,-4.3647,-4.3646,-4.3648,-4.3503,-4.3628,-4.3627,-4.3626,-4.3625,-4.3625,-4.3361,-4.3394,-4.3417,-4.3454,-4.3471,-4.3494,-4.3525,-4.3533,-4.3566,-4.3602,-4.3596,-4.3639,-4.3659,-4.3699,-4.3712,-4.3745,-4.3728,-4.3745,-4.3749,-4.3753,-4.3759,-4.3641,-4.375,-4.375,-4.375,-4.3749,-4.3749,0,-4.3471,-4.3484,-4.3519,-4.3553,-4.3583,-4.3566,-4.3592,-4.3617,-4.3656,-4.3676,-4.3705,-4.3749,-4.3784,-4.3793,-4.3826,-4.3851,-4.3844,-4.386,-4.3858,-4.3861,-4.3772,-4.3759,-4.3864,-4.3864,-4.3864,-4.3864,-4.3864,-4.3864,-4.3531,-4.3587,-4.3589,-4.3653,-4.3665,-4.3709,-4.3725,-4.3746,-4.3762,-4.3813,-4.3842,-4.3848,-4.3864,-4.3899,-4.3929,-4.3931,-4.3944,-4.3963,-4.3962,-4.3878,-4.3867,-4.3856,-4.3844,-4.3965,-4.3966,-4.4048,-4.4049,-4.4049]}]]